Weather History for Aberdeen, United Kingdom

Change the Weather History Date:

Monday, February 18, 2013

  Actual Average Record
Temperature  
Mean Temperature 40 °F -  
Max Temperature 49 °F 45 °F 55 °F (1998)
Min Temperature 30 °F 33 °F 24 °F (2001)
Degree Days  
Heating Degree Days 26    
Moisture  
Dew Point 33 °F    
Average Humidity 79    
Maximum Humidity 100    
Minimum Humidity 39    
Precipitation  
Precipitation 0.00 in 0.07 in - ()
Sea Level Pressure  
Sea Level Pressure 30.06 in    
Wind  
Wind Speed 4 mph ()    
Max Wind Speed 9 mph    
Max Gust Speed -    
Visibility 8.9 miles    
Events      
Averages and records for this station are not official NWS values.
T = Trace of Precipitation, MM = Missing Value Source: Averaged Metar Reports

Daily Weather History Graph

Daily Weather History Graph

Search for Another Location

Airport:

Trip Planner

Search our weather history database for the weather conditions in past years. The results will help you decide how hot, cold, wet, or windy it might be!

Date:

Astronomy

Feb. 18, 2013 Rise Set
Actual Time 7:30 AM GMT 5:16 PM GMT
Civil Twilight 6:50 AM GMT 5:56 PM GMT
Nautical Twilight 6:05 AM GMT 6:40 PM GMT
Astronomical Twilight 5:21 AM GMT 7:25 PM GMT
Moon 10:15 AM GMT (2/18) 2:31 AM GMT (2/18)
Length of Visible Light 11h 05m
Length of Day
9h 46m
First Quarter, 56% of the Moon is Illuminated
Feb 18
First Quarter
Feb 25
Full
Mar 4
Last Quarter
Mar 11
New
Mar 19
First Quarter

Hourly Weather History & Observations

Time (GMT) Temp. Windchill Dew Point Humidity Pressure Visibility Wind Dir Wind Speed Gust Speed Precip Events Conditions
12:20 AM 35.6 °F 30.7 °F 33.8 °F 93% 30.06 in 6.2 mi SSE 5.8 mph - N/A   Unknown
12:50 AM 37.4 °F 31.4 °F 33.8 °F 87% 30.06 in - South 8.1 mph - N/A   Clear
1:20 AM 39.2 °F 33.0 °F 33.8 °F 81% 30.06 in 6.2 mi South 9.2 mph - N/A   Unknown
1:50 AM 37.4 °F 31.4 °F 33.8 °F 87% 30.06 in - South 8.1 mph - N/A   Clear
2:20 AM 37.4 °F 31.4 °F 33.8 °F 87% 30.06 in 6.2 mi South 8.1 mph - N/A   Unknown
2:50 AM 39 °F - 33 °F 73% 30.07 in 12 mi SSE 3.5 mph - -   Scattered Clouds
2:50 AM 37.4 °F 31.4 °F 33.8 °F 87% 30.06 in - South 8.1 mph - N/A   Clear
3:20 AM 35.6 °F 29.2 °F 33.8 °F 93% 30.06 in 6.2 mi South 8.1 mph - N/A   Unknown
3:50 AM 33.8 °F 27.7 °F 32.0 °F 93% 30.04 in 6.2 mi South 6.9 mph - N/A   Unknown
4:20 AM 33.8 °F 29.6 °F 32.0 °F 93% 30.04 in 6.2 mi South 4.6 mph - N/A   Unknown
4:50 AM 35.6 °F 30.7 °F 32.0 °F 87% 30.04 in - SSW 5.8 mph - N/A   Clear
5:20 AM 33.8 °F 27.7 °F 30.2 °F 87% 30.04 in - South 6.9 mph - N/A   Clear
5:50 AM 35 °F - 31 °F 78% 30.07 in 10 mi South 5.8 mph - -  
5:50 AM 33.8 °F 28.6 °F 30.2 °F 87% 30.06 in - South 5.8 mph - N/A   Clear
6:20 AM 33.8 °F 30.8 °F 32.0 °F 93% 30.06 in - SSW 3.5 mph - N/A   Clear
6:50 AM 33.8 °F 30.8 °F 32.0 °F 93% 30.06 in - Variable 3.5 mph - N/A   Clear
7:20 AM 35.6 °F - 30.2 °F 81% 30.06 in - Calm Calm - N/A   Clear
7:50 AM 35.6 °F - 30.2 °F 81% 30.06 in - Calm Calm - N/A   Clear
8:20 AM 33.8 °F 29.6 °F 30.2 °F 87% 30.06 in - SSE 4.6 mph - N/A   Clear
8:50 AM 36 °F - 31 °F 73% 30.09 in 9 mi North 3.5 mph - -  
8:50 AM 37.4 °F - 32.0 °F 81% 30.06 in - Variable 2.3 mph - N/A   Clear
9:20 AM 37.4 °F 34.9 °F 32.0 °F 81% 30.06 in - North 3.5 mph - N/A   Clear
9:50 AM 41.0 °F - 33.8 °F 76% 30.06 in - Calm Calm - N/A   Clear
10:20 AM 41.0 °F - 33.8 °F 76% 30.06 in - Variable 2.3 mph - N/A   Clear
10:50 AM 42.8 °F - 33.8 °F 70% 30.06 in - Calm Calm - N/A   Clear
11:20 AM 46.4 °F - 32.0 °F 57% 30.06 in - Variable 2.3 mph - N/A   Clear
11:50 AM 45 °F - 32 °F 49% 30.09 in 14 mi North 2.3 mph - -  
11:50 AM 46.4 °F - 32.0 °F 57% 30.06 in - Variable 2.3 mph - N/A   Clear
12:20 PM 48.2 °F - 32.0 °F 54% 30.06 in - Variable 2.3 mph - N/A   Clear
12:50 PM 48.2 °F - 33.8 °F 58% 30.06 in - Variable 3.5 mph - N/A   Clear
1:20 PM 48.2 °F - 33.8 °F 58% 30.06 in - North 4.6 mph - N/A   Clear
1:50 PM 50.0 °F - 33.8 °F 54% 30.06 in - North 5.8 mph - N/A   Clear
2:20 PM 50.0 °F - 33.8 °F 54% 30.06 in - North 3.5 mph - N/A   Clear
2:50 PM 49 °F - 32 °F 39% 30.06 in 19 mi North 4.6 mph - -  
2:50 PM 50.0 °F - 32.0 °F 50% 30.06 in - North 4.6 mph - N/A   Clear
3:20 PM 48.2 °F - 37.4 °F 66% 30.04 in - ENE 4.6 mph - N/A   Clear
3:50 PM 46.4 °F 44.3 °F 37.4 °F 71% 30.04 in - ENE 4.6 mph - N/A   Clear
4:20 PM 46.4 °F 44.3 °F 37.4 °F 71% 30.04 in - East 4.6 mph - N/A   Clear
4:50 PM 44.6 °F 43.1 °F 37.4 °F 76% 30.04 in - East 3.5 mph - N/A   Clear
5:20 PM 44.6 °F 43.1 °F 37.4 °F 76% 30.06 in - Variable 3.5 mph - N/A   Clear
5:50 PM 40 °F - 34 °F 73% 30.08 in 9 mi NNW 3.5 mph - -  
5:50 PM 41.0 °F - 35.6 °F 81% 30.06 in - Variable 2.3 mph - N/A   Clear
6:20 PM 37.4 °F 33.8 °F 33.8 °F 87% 30.06 in - West 4.6 mph - N/A   Clear
6:50 PM 35.6 °F 31.7 °F 32.0 °F 87% 30.06 in - West 4.6 mph - N/A   Clear
7:20 PM 35.6 °F 32.8 °F 32.0 °F 87% 30.06 in - West 3.5 mph - N/A   Clear
7:50 PM 33.8 °F - 32.0 °F 93% 30.06 in - Variable 2.3 mph - N/A   Clear
8:20 PM 33.8 °F - 32.0 °F 93% 30.06 in - Calm Calm - N/A   Clear
8:50 PM 32.0 °F - 30.2 °F 93% 30.09 in - Calm Calm - N/A   Clear
9:20 PM 32.0 °F - 30.2 °F 93% 30.09 in - Calm Calm - N/A   Clear
9:50 PM 32.0 °F - 30.2 °F 93% 30.09 in - Calm Calm - N/A   Clear
10:20 PM 32.0 °F - 30.2 °F 93% 30.09 in - North 2.3 mph - N/A   Clear
10:50 PM 30.2 °F - 28.4 °F 93% 30.09 in - NW 2.3 mph - N/A   Clear
11:50 PM 30 °F - 29 °F 93% 30.11 in 6 mi North 2.3 mph - -   Mist
11:50 PM 30.2 °F - 30.2 °F 100% 30.09 in - NNW 2.3 mph - N/A   Clear